�������ċp�F�����K�X���j�^�v���󋵏��
Date,Time,�ċp�F�����K�X���j�^(cps),����,����(m/s)
2021/08/03,00:00,1.5,��,6.9
2021/08/03,00:10,1.4,��,7.0
2021/08/03,00:20,1.5,��,6.8
2021/08/03,00:30,1.4,��,6.4
2021/08/03,00:40,1.4,��,6.7
2021/08/03,00:50,1.4,��,5.9
2021/08/03,01:00,1.4,��,7.9
2021/08/03,01:10,1.4,��,8.3
2021/08/03,01:20,1.5,��,8.0
2021/08/03,01:30,1.5,��,8.3
2021/08/03,01:40,1.5,��,8.3
2021/08/03,01:50,1.4,��,7.6
2021/08/03,02:00,1.4,��,7.7
2021/08/03,02:10,1.5,��,6.3
2021/08/03,02:20,1.5,��,6.8
2021/08/03,02:30,1.5,��,8.0
2021/08/03,02:40,1.5,��,7.0
2021/08/03,02:50,1.4,��,6.0
2021/08/03,03:00,1.4,��,6.5
2021/08/03,03:10,1.4,��,8.2
2021/08/03,03:20,1.4,��,8.4
2021/08/03,03:30,1.4,��,7.7
2021/08/03,03:40,1.5,��,6.4
2021/08/03,03:50,1.5,��,6.1
2021/08/03,04:00,1.4,��,5.2
2021/08/03,04:10,1.5,��,4.8
2021/08/03,04:20,1.4,��,4.7
2021/08/03,04:30,1.4,��,5.3
2021/08/03,04:40,1.5,��,6.3
2021/08/03,04:50,1.4,��,7.1
2021/08/03,05:00,1.4,��,6.3
2021/08/03,05:10,1.4,��,5.7
2021/08/03,05:20,1.5,��,5.8
2021/08/03,05:30,1.5,��,4.8
2021/08/03,05:40,1.4,��,4.2
2021/08/03,05:50,1.5,��,3.6
2021/08/03,06:00,1.4,��,4.1
2021/08/03,06:10,1.4,��,4.7
2021/08/03,06:20,1.4,��,4.2
2021/08/03,06:30,1.4,��,4.5
2021/08/03,06:40,1.5,��,6.3
2021/08/03,06:50,1.5,��,6.0
2021/08/03,07:00,1.5,��,6.5
2021/08/03,07:10,1.5,��,7.6
2021/08/03,07:20,1.4,��,7.6
2021/08/03,07:30,1.4,��쓌,8.7
2021/08/03,07:40,1.5,��,7.6
2021/08/03,07:50,1.4,��,7.2
2021/08/03,08:00,1.5,��쓌,7.8
2021/08/03,08:10,1.4,��,8.0
2021/08/03,08:20,1.4,��,7.3
2021/08/03,08:30,1.5,��,7.8
2021/08/03,08:40,1.5,��,8.5
2021/08/03,08:50,1.4,��,9.6
2021/08/03,09:00,1.4,��,9.0
2021/08/03,09:10,1.4,��,9.9
2021/08/03,09:20,1.4,��,10.9
2021/08/03,09:30,1.4,��,10.0
2021/08/03,09:40,1.4,��,10.2
2021/08/03,09:50,1.5,��,11.7
2021/08/03,10:00,1.4,��,11.1
2021/08/03,10:10,1.4,��,10.2
2021/08/03,10:20,1.5,��,9.9
2021/08/03,10:30,1.4,��,10.5
2021/08/03,10:40,1.5,��,10.2
2021/08/03,10:50,1.4,��,12.0
2021/08/03,11:00,1.5,��,10.8
2021/08/03,11:10,1.4,��,11.6
2021/08/03,11:20,1.5,��쓌,12.5
2021/08/03,11:30,1.4,��쓌,11.3
2021/08/03,11:40,1.4,��쓌,11.6
2021/08/03,11:50,1.5,��,11.9
2021/08/03,12:00,1.5,��쓌,12.8
2021/08/03,12:10,1.5,��쓌,11.4
2021/08/03,12:20,1.4,��쓌,12.7
2021/08/03,12:30,1.4,��쓌,11.6
2021/08/03,12:40,1.4,��,10.2
2021/08/03,12:50,1.3,��쓌,10.7
2021/08/03,13:00,1.5,��쓌,12.0
2021/08/03,13:10,1.4,��쓌,12.0
2021/08/03,13:20,1.4,��,12.4
2021/08/03,13:30,1.4,��,12.8
2021/08/03,13:40,1.5,��쓌,13.1
2021/08/03,13:50,1.4,��,12.4
2021/08/03,14:00,1.5,��,11.3
2021/08/03,14:10,1.3,��,10.7
2021/08/03,14:20,1.4,��쓌,13.5
2021/08/03,14:30,1.4,��,13.5
2021/08/03,14:40,1.5,��,11.6
2021/08/03,14:50,1.4,��,12.7
2021/08/03,15:00,1.4,��,11.3
2021/08/03,15:10,1.5,��,10.0
2021/08/03,15:20,1.4,��쓌,9.1
2021/08/03,15:30,1.4,��,9.9
2021/08/03,15:40,1.5,��,9.0
2021/08/03,15:50,1.4,��,8.4
2021/08/03,16:00,1.4,��,7.9
2021/08/03,16:10,1.4,��쓌,9.0
2021/08/03,16:20,1.4,��쓌,9.9
2021/08/03,16:30,1.5,��,9.2
2021/08/03,16:40,1.4,��,9.7
2021/08/03,16:50,1.5,��,9.6
2021/08/03,17:00,1.4,��,9.3
2021/08/03,17:10,1.5,��,8.6
2021/08/03,17:20,1.4,��,8.9
2021/08/03,17:30,1.4,��,10.3
2021/08/03,17:40,1.5,��,9.1
2021/08/03,17:50,1.4,��,8.7
2021/08/03,18:00,1.5,��,8.7
2021/08/03,18:10,1.4,��,6.5
2021/08/03,18:20,1.4,��쐼,5.8
2021/08/03,18:30,1.4,��,5.6
2021/08/03,18:40,1.5,��,7.1
2021/08/03,18:50,1.4,��,6.4
2021/08/03,19:00,1.5,��,6.2
2021/08/03,19:10,1.5,��,6.5
2021/08/03,19:20,1.3,��,6.6
2021/08/03,19:30,1.5,��,7.0
2021/08/03,19:40,1.4,��,6.6
2021/08/03,19:50,1.4,��,5.7
2021/08/03,20:00,1.5,��,6.8
2021/08/03,20:10,1.5,��,6.9
2021/08/03,20:20,1.5,��,7.5
2021/08/03,20:30,1.3,��,8.4
2021/08/03,20:40,1.4,��,8.3
2021/08/03,20:50,1.5,��,8.0
2021/08/03,21:00,1.4,��,8.9
2021/08/03,21:10,1.5,��,7.9
2021/08/03,21:20,1.5,��,8.0
2021/08/03,21:30,1.4,��,7.0
2021/08/03,21:40,1.4,��,6.8
2021/08/03,21:50,1.5,��,7.3
2021/08/03,22:00,1.5,��,5.7
2021/08/03,22:10,1.4,��,5.1
2021/08/03,22:20,1.4,��,4.7
2021/08/03,22:30,1.4,��,5.2
2021/08/03,22:40,1.4,��,5.2
2021/08/03,22:50,1.4,��,5.0
2021/08/03,23:00,1.5,��,5.2
2021/08/03,23:10,1.5,��,5.4
2021/08/03,23:20,1.4,��,6.9
2021/08/03,23:30,1.4,��,6.2
2021/08/03,23:40,1.4,��,7.3
2021/08/03,23:50,1.4,��,7.0
